sat.trackr.live / text

‹ back to catalog

STARLINK-34087

NORAD 64023 · 2025-102B

PAYLOAD ACTIVE UNKNOWN

§ Identity

Operator
Country
US
Launch date
2025-05-16
Launch site
AFWTR
Launch vehicle
Mass (kg)
RCS (m²)

Purposes: comms

External: N2YO · Heavens-Above · Gunter

§ Orbital elements

Epoch: 2026-09-20T13:44:52.160352Z

Period
94.14 min
Inclination
70.0010°
Eccentricity
0.0003347
Mean motion
15.29584357 rev/d
Perigee alt
474.8 km
Apogee alt
479.3 km
Semi-major
6,855.2 km
B*
2.2598e-4
RAAN
340.7000°
Arg perigee
268.0142°
Mean anomaly
92.0650°
Rev number
7,521

§ Raw data

STARLINK-340871 64023U 25102B   26263.57282593  .00006375  00000+0  22598-3 0  99942 64023  70.0010 340.7000 0003347 268.0142  92.0650 15.29584357 75215

JSON: /api/v1/satellites/64023 · /tle

For live sub-satellite position, see the globe view (requires WebGL).

§ Visibility from observer

Set your observer location to see the next 7 days of passes ≥ 10°. The values pass through the URL so the page stays shareable.

No JS? Fill the form by hand. The geolocation button needs JavaScript.